Location: *
(33.3200°N, 8.3381°W)
Time: 19:22:04
(UTC+00:00)

MOS 1 Rocket - Pass Details

Date: 09 April 2020
Orbit: 614 x 830 km, 97.4° (Epoch: 27 May)

Event Time Altitude Azimuth Distance (km) Brightness Sun altitude
Rises 20:57:47 0° 7° (N) 3,364 7.1 -24.0°
Reaches altitude 10° 21:00:09 10° 5° (N) 2,437 6.4 -24.5°
Maximum altitude 21:05:33 66° 284° (WNW) 904 4.0 -25.4°
Drops below altitude 10° 21:10:52 10° 203° (SSW) 2,403 6.0 -26.4°
Enters shadow 21:11:15 - 203° (SSW) 2,552 6.1 -26.5°
